Weather History for KDYL - June, 2012

Change the Weather History Date:

Saturday, June 23, 2012

  Actual Average (KTTN) Record (KTTN)
Temperature  
Mean Temperature 74 °F 73 °F  
Max Temperature 86 °F 83 °F 97 °F (1894)
Min Temperature 63 °F 63 °F 43 °F (1992)
Degree Days  
Heating Degree Days 0 0  
Month to date heating degree days 22  
Since 1 June heating degree days 22  
Since 1 July heating degree days 5158  
Cooling Degree Days 10 8  
Month to date cooling degree days 129  
Year to date cooling degree days 186  
Since 1 June cooling degree days 129  
Growing Degree Days 24 (Base 50)    
Moisture  
Dew Point 57 °F    
Average Humidity 59    
Maximum Humidity 97    
Minimum Humidity 32    
Precipitation  
Precipitation 0.01 in 0.12 in 1.41 in (1875)
Month to date precipitation 3.49  
Year to date precipitation 21.01  
Sea Level Pressure  
Sea Level Pressure 29.90 in    
Wind  
Wind Speed 4 mph (NW)    
Max Wind Speed 12 mph    
Max Gust Speed 20 mph    
Visibility 9 miles    
Events      
T = Trace of Precipitation, MM = Missing Value Source: NWS Daily Summary

Daily Weather History Graph

Daily Weather History Graph

Search for Another Location

Airport or City:

Trip Planner

Search our weather history database for the weather conditions in past years. The results will help you decide how hot, cold, wet, or windy it might be!

Date:

Astronomy

Jun. 23, 2012 Rise Set
Actual Time 5:31 AM EDT 8:34 PM EDT
Civil Twilight 4:58 AM EDT 9:07 PM EDT
Nautical Twilight 4:16 AM EDT 9:49 PM EDT
Astronomical Twilight 3:26 AM EDT 10:38 PM EDT
Moon 9:31 AM EDT (6/23) 11:00 PM EDT (6/23)
Length of Visible Light 16h 09m
Length of Day
15h 02m
Waxing Crescent, 16% of the Moon is Illuminated
Jun 23
Waxing Crescent
Jun 26
First Quarter
Jul 3
Full
Jul 10
Last Quarter
Jul 19
New

Hourly Weather History & Observations

Time (EDT) Temp. Heat Index Dew Point Humidity Pressure Visibility Wind Dir Wind Speed Gust Speed Precip Events Conditions
12:54 AM 71.1 °F - 70.0 °F 96% 29.82 in 5.0 mi SSW 3.5 mph - N/A   Clear
1:54 AM 70.0 °F - 69.1 °F 97% 29.83 in 5.0 mi Calm Calm - N/A   Partly Cloudy
2:54 AM 70.0 °F - 69.1 °F 97% 29.83 in 5.0 mi Calm Calm - N/A   Mostly Cloudy
3:54 AM 68.0 °F - 64.9 °F 90% 29.83 in 10.0 mi Calm Calm - N/A   Clear
4:54 AM 66.0 °F - 62.1 °F 87% 29.84 in 10.0 mi Calm Calm - 0.01 in   Clear
5:54 AM 63.0 °F - 62.1 °F 97% 29.86 in 10.0 mi Calm Calm - N/A   Clear
6:54 AM 66.0 °F - 61.0 °F 84% 29.87 in 10.0 mi Calm Calm - N/A   Clear
7:54 AM 70.0 °F - 57.0 °F 63% 29.89 in 10.0 mi North 6.9 mph - N/A   Clear
8:54 AM 73.0 °F - 55.9 °F 55% 29.90 in 10.0 mi North 11.5 mph 19.6 mph N/A   Clear
9:54 AM 78.1 °F - 55.9 °F 46% 29.91 in 10.0 mi North 6.9 mph - N/A   Clear
10:54 AM 81.0 °F 81.0 °F 57.0 °F 44% 29.91 in 10.0 mi North 5.8 mph - N/A   Partly Cloudy
11:54 AM 81.0 °F 80.7 °F 55.0 °F 41% 29.91 in 10.0 mi Variable 6.9 mph - N/A   Clear
12:54 PM 82.9 °F - 52.0 °F 34% 29.91 in 10.0 mi NW 10.4 mph 18.4 mph N/A   Clear
1:54 PM 84.9 °F 83.2 °F 53.1 °F 33% 29.90 in 10.0 mi WNW 10.4 mph - N/A   Partly Cloudy
3:54 PM 86.0 °F 84.0 °F 53.1 °F 32% 29.90 in 10.0 mi NW 11.5 mph 17.3 mph N/A   Partly Cloudy
4:54 PM 82.9 °F - 52.0 °F 34% 29.91 in 10.0 mi WNW 10.4 mph 17.3 mph N/A   Partly Cloudy
5:54 PM 84.0 °F - 52.0 °F 33% 29.91 in 10.0 mi NW 10.4 mph 16.1 mph N/A   Partly Cloudy
6:54 PM 82.0 °F - 51.1 °F 34% 29.92 in 10.0 mi NW 9.2 mph - N/A   Clear
7:54 PM 80.1 °F - 51.1 °F 36% 29.93 in 10.0 mi WNW 5.8 mph - N/A   Clear
8:54 PM 75.0 °F - 52.0 °F 44% 29.95 in 10.0 mi Calm Calm - N/A   Clear
9:54 PM 69.1 °F - 54.0 °F 58% 29.97 in 10.0 mi Calm Calm - N/A   Clear
10:54 PM 66.9 °F - 54.0 °F 63% 29.98 in 10.0 mi Calm Calm - N/A   Clear
11:54 PM 66.9 °F - 53.1 °F 61% 29.99 in 10.0 mi Calm Calm - N/A   Clear